TimeCDT,TemperatureF,Dew PointF,Humidity,Sea Level PressureIn,VisibilityMPH,Wind Direction,Wind SpeedMPH,Gust SpeedMPH,PrecipitationIn,Events,Conditions,WindDirDegrees,DateUTC
12:15 AM,55.6,50.9,84,30.03,10.0,South,3.5,-,N/A,,Clear,170,2013-04-23 05:15:00
12:35 AM,55.4,50.5,84,30.03,10.0,South,4.6,-,N/A,,Clear,170,2013-04-23 05:35:00
12:55 AM,55.6,50.0,81,30.02,10.0,SE,5.8,-,N/A,,Clear,140,2013-04-23 05:55:00
1:15 AM,57.6,48.7,72,30.01,10.0,SSE,5.8,-,N/A,,Clear,160,2013-04-23 06:15:00
1:35 AM,56.7,48.7,75,30.02,10.0,SSE,6.9,-,N/A,,Clear,150,2013-04-23 06:35:00
1:55 AM,55.9,49.1,78,30.01,10.0,SSE,6.9,-,N/A,,Clear,160,2013-04-23 06:55:00
2:15 AM,57.2,49.5,75,30.01,10.0,South,9.2,-,N/A,,Clear,170,2013-04-23 07:15:00
2:35 AM,57.4,50.4,77,30.01,10.0,South,8.1,-,N/A,,Clear,170,2013-04-23 07:35:00
2:55 AM,57.6,50.9,78,30.00,10.0,South,8.1,-,N/A,,Clear,180,2013-04-23 07:55:00
3:15 AM,57.2,51.6,82,30.01,10.0,South,6.9,-,N/A,,Clear,180,2013-04-23 08:15:00
3:35 AM,57.0,52.0,83,30.00,10.0,South,3.5,-,N/A,,Clear,180,2013-04-23 08:35:00
3:55 AM,55.8,52.9,90,30.01,10.0,Calm,Calm,-,N/A,,Scattered Clouds,0,2013-04-23 08:55:00
4:15 AM,55.4,54.3,96,30.01,10.0,Calm,Calm,-,N/A,,Scattered Clouds,0,2013-04-23 09:15:00
4:35 AM,54.9,54.9,100,30.01,10.0,South,4.6,-,N/A,,Mostly Cloudy,170,2013-04-23 09:35:00
4:55 AM,58.3,56.7,94,30.01,10.0,South,4.6,-,N/A,,Overcast,170,2013-04-23 09:55:00
5:15 AM,57.9,56.1,94,30.00,10.0,South,5.8,-,N/A,,Mostly Cloudy,170,2013-04-23 10:15:00
5:35 AM,58.3,56.7,94,30.00,10.0,South,8.1,-,N/A,,Mostly Cloudy,180,2013-04-23 10:35:00
5:55 AM,59.4,58.3,96,30.00,10.0,South,8.1,-,N/A,,Overcast,180,2013-04-23 10:55:00
6:15 AM,60.6,59.4,96,30.00,10.0,South,9.2,-,N/A,,Mostly Cloudy,180,2013-04-23 11:15:00
6:35 AM,60.3,59.9,99,30.01,10.0,South,8.1,-,N/A,,Mostly Cloudy,170,2013-04-23 11:35:00
6:55 AM,59.9,59.9,100,30.01,10.0,South,6.9,-,N/A,,Scattered Clouds,170,2013-04-23 11:55:00
7:15 AM,60.6,60.6,100,30.01,10.0,South,6.9,-,N/A,,Scattered Clouds,180,2013-04-23 12:15:00
7:35 AM,61.9,61.9,100,30.02,10.0,SSE,5.8,-,N/A,,Mostly Cloudy,160,2013-04-23 12:35:00
7:55 AM,63.3,63.3,100,30.03,10.0,South,5.8,-,N/A,,Overcast,170,2013-04-23 12:55:00
8:15 AM,64.4,64.4,100,30.04,10.0,SSE,5.8,-,N/A,,Overcast,160,2013-04-23 13:15:00
8:35 AM,65.5,65.3,99,30.05,10.0,SSE,10.4,-,N/A,,Overcast,160,2013-04-23 13:35:00
8:55 AM,65.8,65.3,98,30.05,10.0,South,8.1,-,N/A,,Overcast,170,2013-04-23 13:55:00
9:15 AM,66.6,64.9,95,30.07,10.0,SSE,8.1,-,N/A,,Overcast,160,2013-04-23 14:15:00
9:35 AM,67.1,64.4,91,30.07,10.0,South,5.8,-,N/A,,Overcast,190,2013-04-23 14:35:00
9:55 AM,67.6,63.9,88,30.08,10.0,SSW,8.1,-,N/A,,Overcast,200,2013-04-23 14:55:00
10:15 AM,69.1,63.5,82,30.08,10.0,SSW,6.9,-,N/A,,Overcast,200,2013-04-23 15:15:00
10:35 AM,70.2,63.0,78,30.08,10.0,SSW,8.1,-,N/A,,Overcast,210,2013-04-23 15:35:00
10:55 AM,71.1,63.3,76,30.08,10.0,SW,10.4,-,N/A,,Overcast,220,2013-04-23 15:55:00
11:15 AM,71.1,63.0,75,30.08,10.0,SSW,11.5,-,N/A,,Overcast,200,2013-04-23 16:15:00
11:35 AM,71.6,62.8,74,30.07,10.0,SSW,9.2,-,N/A,,Overcast,210,2013-04-23 16:35:00
11:55 AM,73.0,63.1,71,30.07,10.0,SSW,6.9,-,N/A,,Overcast,210,2013-04-23 16:55:00
12:15 PM,73.6,62.6,68,30.06,10.0,South,11.5,-,N/A,,Overcast,190,2013-04-23 17:15:00
12:35 PM,74.1,63.0,68,30.05,10.0,South,8.1,-,N/A,,Overcast,180,2013-04-23 17:35:00
12:55 PM,74.3,62.6,67,30.04,10.0,South,10.4,-,N/A,,Overcast,190,2013-04-23 17:55:00
1:15 PM,74.3,62.6,67,30.04,10.0,South,10.4,-,N/A,,Overcast,190,2013-04-23 18:15:00
1:35 PM,75.4,62.8,65,30.03,10.0,SSW,8.1,17.3,N/A,,Overcast,200,2013-04-23 18:35:00
1:55 PM,75.9,63.1,64,30.02,10.0,South,8.1,-,N/A,,Overcast,190,2013-04-23 18:55:00
2:15 PM,77.4,62.6,60,30.01,10.0,SSW,9.2,-,N/A,,Overcast,200,2013-04-23 19:15:00
2:35 PM,76.6,62.8,62,30.01,10.0,SSW,8.1,-,N/A,,Overcast,210,2013-04-23 19:35:00
2:55 PM,78.4,62.4,58,30.00,10.0,SSW,8.1,-,N/A,,Overcast,200,2013-04-23 19:55:00
3:15 PM,77.5,61.2,57,29.99,10.0,South,9.2,-,N/A,,Overcast,190,2013-04-23 20:15:00
3:35 PM,78.8,62.4,57,29.98,10.0,SW,5.8,-,N/A,,Mostly Cloudy,230,2013-04-23 20:35:00
3:55 PM,79.2,61.9,55,29.97,10.0,SSW,8.1,-,N/A,,Mostly Cloudy,210,2013-04-23 20:55:00
4:15 PM,79.3,61.2,54,29.96,10.0,SSW,9.2,-,N/A,,Mostly Cloudy,210,2013-04-23 21:15:00
4:35 PM,78.8,61.3,55,29.96,10.0,SSW,9.2,-,N/A,,Scattered Clouds,200,2013-04-23 21:35:00
4:55 PM,80.4,61.7,53,29.95,10.0,SSW,5.8,-,N/A,,Mostly Cloudy,200,2013-04-23 21:55:00
5:15 PM,80.2,62.2,54,29.94,10.0,South,9.2,-,N/A,,Overcast,180,2013-04-23 22:15:00
5:35 PM,78.1,63.0,60,29.94,10.0,South,5.8,-,N/A,,Scattered Clouds,190,2013-04-23 22:35:00
5:55 PM,77.9,63.5,61,29.94,10.0,SW,5.8,-,N/A,,Scattered Clouds,220,2013-04-23 22:55:00
6:15 PM,78.1,63.1,60,29.94,10.0,SSW,4.6,-,N/A,,Mostly Cloudy,200,2013-04-23 23:15:00
6:35 PM,79.2,63.0,57,29.94,10.0,South,5.8,-,N/A,,Scattered Clouds,190,2013-04-23 23:35:00
6:55 PM,78.3,64.0,61,29.93,10.0,SE,3.5,-,N/A,,Mostly Cloudy,140,2013-04-23 23:55:00
7:15 PM,76.5,65.3,68,29.93,10.0,South,3.5,-,N/A,,Mostly Cloudy,170,2013-04-24 00:15:00
7:35 PM,73.0,68.2,85,29.94,10.0,Calm,Calm,-,N/A,,Mostly Cloudy,0,2013-04-24 00:35:00
7:55 PM,72.0,69.8,93,29.94,10.0,Calm,Calm,-,N/A,,Mostly Cloudy,0,2013-04-24 00:55:00
8:15 PM,71.4,69.3,93,29.95,10.0,Calm,Calm,-,N/A,,Mostly Cloudy,0,2013-04-24 01:15:00
8:35 PM,70.5,69.1,95,29.96,10.0,Calm,Calm,-,N/A,,Mostly Cloudy,0,2013-04-24 01:35:00
8:55 PM,69.3,69.3,100,29.96,10.0,Calm,Calm,-,N/A,,Scattered Clouds,0,2013-04-24 01:55:00
9:15 PM,69.6,68.4,96,29.98,10.0,SSW,3.5,-,N/A,,Scattered Clouds,200,2013-04-24 02:15:00
9:35 PM,70.0,67.5,92,29.98,10.0,SSW,3.5,-,N/A,,Mostly Cloudy,210,2013-04-24 02:35:00
9:55 PM,68.7,68.0,98,29.99,10.0,Calm,Calm,-,N/A,,Mostly Cloudy,0,2013-04-24 02:55:00
10:15 PM,69.3,66.7,92,29.99,10.0,SSW,3.5,-,N/A,,Mostly Cloudy,210,2013-04-24 03:15:00
10:35 PM,67.8,67.6,99,30.00,10.0,SSW,3.5,-,N/A,,Mostly Cloudy,210,2013-04-24 03:35:00
10:55 PM,69.3,65.7,88,30.00,10.0,SSW,4.6,-,N/A,,Overcast,210,2013-04-24 03:55:00
11:15 PM,70.2,64.8,83,30.00,10.0,SSW,6.9,-,N/A,,Mostly Cloudy,200,2013-04-24 04:15:00
11:35 PM,69.6,64.4,83,30.00,10.0,SSW,4.6,-,N/A,,Mostly Cloudy,200,2013-04-24 04:35:00
11:55 PM,69.6,64.4,83,30.00,10.0,SSW,6.9,-,N/A,,Mostly Cloudy,200,2013-04-24 04:55:00